CAPE
0 0 0 0 0 0 0 0 0 0 0 0 0 0 0 0 0 0 0 0 0 0 0 0 0 0 0 0 0 0 0 0 0 0 0 0 0 0 0 0 0 0 0 0
0 0 0 0 0 0 0 0 0 0 0 0 0 0 0 0 0 0 0 0 0 0 0 0 0 0 0 0 0 0 0 0 0 0 0 0 0 0 0 0 0 0 0 0
0 0 0 0 0 0 0 0 0 0 0 0 0 0 0 0 0 0 0 0 0 0 0 0 0 0 0 0 0 0 0 0 0 0 0 0 0 0 0 0 0 0 0 0
0 0 0 0 0 0 0 0 0 0 0 0 0 0 0 0 0 0 0 0 0 0 0 0 0 0 0 0 0 0 0 0 0 0 0 0 0 0 0 0 0 0 0 0
0 0 0 0 0 0 0 0 0 0 0 0 0 0 0 0 0 0 0 0 0 0 0 0 0 0 0 0 0 0 0 0 0 0 0 0 0 0 0 0 0 0 0 0
0 0 0 0 0 0 0 0 0 0 0 0 0 0 0 0 0 0 0 0 0 0 0 0 0 0 0 0 0 0 0 0 0 0 0 0 0 0 0 0 0 0 0 0
0 0 0 0 0 0 0 0 0 0 0 0 0 0 0 0 0 0 0 0 0 0 0 0 0 0 0 0 0 0 0 0 0 0 0 0 0 0 0 0 0 0 0 0
0 0 0 0 0 0 0 0 0 0 0 0 0 0 0 0 0 0 0 0 0 0 0 0 0 0 0 0 0 0 0 0 0 0 0 0 0 0 0 0 0 0 0 0
0 0 0 0 0 0 0 0 0 0 0 0 0 0 0 0 0 0 0 0 0 0 0 0 0 0 0 0 0 0 0 0 0 0 0 0 0 0 0 0 0 0 0 1
0 0 0 0 0 0 0 0 0 0 0 0 0 0 0 0 0 0 0 0 0 0 0 0 0 0 0 0 0 0 0 0 0 0 0 0 0 0 0 0 0 0 0 0
0 0 0 0 0 0 0 0 0 0 0 0 0 0 0 0 0 0 0 0 0 0 0 0 0 0 0 0 0 0 0 0 0 0 0 0 0 0 0 0 0 0 0 0
0 0 0 0 0 0 0 0 0 0 0 0 0 0 0 0 0 0 0 0 0 0 0 0 0 0 0 0 0 0 0 0 0 0 0 0 0 0 0 0 0 0 0 0
0 0 0 0 0 0 0 0 0 0 0 0 0 0 0 0 0 0 0 0 0 0 0 0 0 0 0 0 0 0 0 0 0 0 0 0 0 0 0 0 0 0 0 0
0 0 0 0 0 0 0 0 0 0 0 0 0 0 0 0 0 0 0 0 0 0 0 0 0 0 0 0 0 0 0 0 0 0 0 0 0 0 0 0 0 0 0 0
0 0 1 0 0 0 0 0 0 0 0 0 0 0 0 0 0 0 0 0 0 0 0 0 0 0 0 0 0 0 0 0 0 0 0 0 0 0 0 0 0 0 0 0
0 0 0 0 0 0 0 0 0 0 0 1 0 0 0 0 28 15 2 0 0 0 0 0 0 0 0 0 0 0 0 0 0 0 0 0 0 0 0 0 0 0 0 0
1 0 0 0 0 0 0 0 0 0 0 0 0 0 0 0 5 7 23 0 0 0 0 0 0 0 0 0 0 0 0 0 0 0 0 0 0 0 0 0 0 0 0 0
2 8 2 0 0 0 0 0 0 0 0 0 0 0 0 0 0 0 0 0 0 0 0 0 0 0 0 0 0 0 0 0 0 0 0 0 0 0 0 0 0 0 0 0
0 0 0 0 0 0 0 0 0 0 0 0 0 0 0 0 0 1 0 0 0 0 0 0 0 0 0 0 0 0 0 0 0 0 0 0 0 0 0 0 0 0 0 0
0 0 0 0 0 0 0 0 0 0 0 0 0 0 0 0 0 0 0 0 0 0 0 0 0 0 0 0 0 0 0 0 0 0 0 0 0 0 0 0 0 0 0 0
0 0 0 0 1 0 0 0 5 0 0 0 0 0 0 0 0 0 0 0 0 0 0 0 0 0 0 0 0 0 0 0 0 0 0 0 0 0 0 0 0 0 0 0
0 0 0 0 0 0 0 0 0 0 0 0 0 0 0 0 0 0 0 0 0 0 0 0 0 0 0 0 0 0 0 0 0 0 0 0 0 0 0 0 0 0 0 0
0 0 0 0 0 0 0 0 0 0 0 0 0 0 0 0 0 0 0 3 2 2 2 0 0 0 0 0 0 0 0 0 0 0 0 0 0 0 0 0 0 0 0 0
0 0 0 0 0 0 0 0 0 0 0 0 0 0 0 0 0 0 3 2 2 4 1 0 0 0 0 0 0 0 0 0 0 0 0 0 0 0 0 0 0 0 0 0
0 0 0 0 0 0 0 0 0 0 0 0 0 0 0 0 0 0 1 1 1 2 1 0 0 0 2 1 0 0 0 0 0 0 0 0 0 0 0 0 0 0 0 0
0 0 0 0 0 0 0 17 1 0 0 0 0 0 0 1 0 0 0 1 1 1 2 1 1 0 0 0 0 0 0 0 0 0 0 0 0 0 0 0 0 0 0 0
CIN
0 0 0 0 0 0 0 0 0 0 0 0 0 0 0 0 0 0 0 0 0 0 0 0 0 0 0 0 0 0 0 0 0 0 0 0 0 0 0 0 0 0 0 0
0 0 0 0 0 0 0 0 0 0 0 0 0 0 0 0 0 0 0 0 0 0 0 0 0 0 0 0 0 0 0 0 0 0 0 0 0 0 0 0 0 0 0 0
0 0 0 0 0 0 0 0 0 0 0 0 0 0 0 0 0 0 0 0 0 0 0 0 0 0 0 0 0 0 0 0 0 0 0 0 0 0 0 0 0 0 0 0
0 0 0 0 0 0 0 0 0 0 0 0 0 0 0 0 0 0 0 0 0 0 0 0 0 0 0 0 0 0 0 0 0 0 0 0 0 0 0 0 0 0 0 0
0 0 0 0 0 0 0 0 0 0 0 0 0 0 0 0 0 0 0 0 0 0 0 0 0 0 0 0 0 0 0 0 0 0 0 0 0 0 0 0 0 0 -2 0
0 0 0 0 0 0 0 0 0 0 0 0 0 0 0 0 0 0 0 0 0 0 0 0 0 0 0 0 0 0 0 0 0 0 0 0 0 0 0 0 0 0 0 0
0 0 0 0 0 0 0 0 0 0 0 0 0 0 0 0 0 0 0 0 0 0 0 0 0 0 0 0 0 0 0 0 0 0 0 0 0 0 0 0 0 0 0 0
0 0 0 0 0 0 0 0 0 0 0 0 0 0 0 0 0 0 0 0 0 0 0 0 0 0 0 0 0 0 0 0 0 0 0 0 0 0 0 0 0 0 0 0
0 0 0 0 0 0 0 0 0 0 0 0 0 0 0 0 0 0 0 0 0 0 0 0 0 0 0 0 0 0 0 0 0 0 0 0 0 0 0 0 0 0 0 -0
0 0 0 0 0 0 0 0 0 0 0 0 0 0 0 0 0 0 0 0 0 0 0 0 0 0 0 0 0 0 0 0 0 0 0 0 0 0 0 0 0 0 0 0
0 0 0 0 0 0 0 0 0 0 0 0 0 0 0 0 0 0 0 0 0 0 0 0 0 0 0 0 0 0 0 0 0 0 -0 0 0 0 0 0 0 0 0 0
0 0 0 0 0 0 0 0 0 0 0 0 0 0 0 0 0 0 0 0 0 0 0 0 0 0 0 0 0 0 0 0 0 0 0 0 0 0 0 0 0 0 0 0
0 0 0 0 0 0 0 0 0 0 0 0 0 0 0 0 0 0 0 0 0 0 0 0 0 0 0 0 0 0 0 0 0 0 0 0 0 0 0 0 0 0 0 0
0 0 0 0 0 0 0 0 0 0 0 0 0 0 0 0 0 0 0 0 0 0 0 0 0 0 0 0 0 0 0 0 0 0 0 0 0 0 0 0 0 0 0 0
0 0 0 0 0 0 0 0 0 0 0 0 0 0 0 0 0 0 0 0 0 0 0 0 0 0 0 0 0 0 0 0 0 0 0 0 0 0 0 0 0 0 0 0
0 0 0 0 0 0 0 0 0 0 0 0 0 0 0 0 -27 -16 -61 0 0 0 0 0 0 0 0 0 0 0 0 0 0 0 0 0 0 0 0 0 0 0 0 0
-2 0 0 0 -0 0 0 0 0 0 0 0 0 0 0 -1 -9 -31 -58 0 0 0 0 0 0 0 0 0 0 0 0 0 0 0 0 0 0 0 0 0 0 0 0 0
-2 -3 -4 0 0 0 0 0 0 0 0 -1 -2 0 0 0 0 0 0 0 0 0 0 0 0 0 0 0 0 0 0 0 0 0 0 0 0 0 0 0 0 0 0 0
0 0 0 0 0 0 0 0 0 0 0 0 0 0 0 0 -25 -32 0 0 0 0 0 0 0 0 0 0 0 0 0 0 0 0 0 0 0 0 0 0 0 0 0 0
0 0 -0 0 0 0 0 0 0 0 0 0 0 0 0 0 0 0 0 0 0 0 0 0 0 0 0 0 0 0 0 0 0 0 0 0 0 0 0 0 0 0 0 0
0 0 0 0 -2 0 0 0 -40 0 0 0 0 0 0 0 0 0 0 0 0 0 0 0 0 0 0 0 0 0 0 0 0 0 0 0 0 0 0 0 0 0 0 0
0 0 0 0 0 0 0 0 0 0 0 0 0 0 0 0 0 0 0 0 0 0 0 0 0 0 0 0 0 0 0 0 0 0 0 0 0 0 0 0 0 0 0 0
0 0 0 0 0 0 0 0 0 0 0 0 0 0 0 0 0 0 0 0 0 0 0 0 0 0 0 0 0 0 0 0 0 0 0 0 0 0 0 0 0 0 0 0
0 0 0 0 0 0 0 0 0 0 0 0 0 0 0 0 0 0 0 0 0 0 0 0 0 0 0 0 0 0 0 0 0 0 0 0 0 0 0 0 0 0 0 0
0 0 0 0 0 0 0 0 0 0 0 0 0 0 0 0 0 0 0 0 0 0 0 0 0 0 0 0 0 0 0 0 0 0 0 0 0 0 0 0 0 0 0 0
0 0 0 0 0 0 0 -137 -87 0 0 0 0 0 0 0 0 0 0 0 0 0 0 0 0 0 0 0 0 0 0 0 0 0 0 0 0 0 0 0 0 0 0 0
Wind_Speed
20 24 23 20 21 24 25 27 30 27 22 24 20 21 18 12 13 11 11 11 10 11 10 11 12 14 17 18 20 21 22 23 23 22 20 20 20 22 24 26 27 27 28 29
25 27 23 25 27 28 30 33 33 32 29 24 22 21 17 15 14 13 13 12 10 10 9 9 11 15 17 18 19 19 21 22 22 21 20 19 19 22 24 26 28 28 29 31
27 27 20 24 27 29 28 28 28 28 26 23 21 23 22 20 17 15 15 13 11 10 8 6 10 13 15 17 17 17 18 20 21 22 22 21 21 23 27 28 29 29 29 31
33 32 31 28 30 24 29 24 27 29 27 28 21 30 26 22 23 18 15 15 14 11 7 6 8 11 13 15 15 15 17 19 20 22 22 23 24 25 27 29 29 30 30 32
31 28 26 30 28 23 29 24 25 25 27 30 28 32 32 23 25 23 19 17 14 11 8 8 8 8 10 12 13 14 16 18 20 21 22 23 24 25 27 28 30 31 31 32
38 32 29 26 27 25 26 23 23 26 27 37 30 31 36 25 23 24 19 17 14 12 10 7 6 6 9 12 13 13 15 17 19 21 22 22 23 25 28 29 30 30 30 31
40 44 41 36 37 31 27 25 31 34 34 40 25 31 34 26 23 21 19 17 14 12 10 8 6 7 8 11 11 13 15 17 18 19 21 22 23 25 27 28 29 29 30 30
35 44 34 32 35 33 31 30 35 35 38 42 28 40 39 33 28 20 15 14 12 11 10 8 7 6 8 9 11 12 14 16 17 18 20 22 23 25 26 27 27 28 28 29
37 45 32 32 30 30 35 37 32 36 33 37 35 35 34 30 28 16 14 14 14 12 10 8 7 6 7 10 11 12 14 15 16 17 19 21 22 24 25 25 26 27 27 27
35 48 34 33 28 35 37 29 33 35 43 46 42 39 36 26 21 14 12 14 13 11 10 9 8 6 7 8 11 12 14 14 15 16 18 19 21 22 23 24 25 27 29 27
45 45 44 32 35 38 34 38 35 35 39 46 48 47 33 29 22 18 16 15 13 12 11 10 9 7 6 8 10 11 12 13 14 15 17 18 20 21 22 24 24 26 26 27
42 41 54 50 40 36 35 41 37 40 41 39 40 43 26 19 17 16 16 15 12 11 11 11 10 9 7 8 9 10 11 11 11 13 16 18 19 20 22 23 24 25 25 27
34 40 52 57 50 53 48 44 43 40 35 41 41 41 22 19 16 16 13 11 12 12 12 13 12 10 9 8 8 9 9 9 10 14 15 17 18 19 21 22 23 24 23 26
27 35 41 56 42 35 43 50 42 42 45 44 41 35 23 19 17 17 15 15 15 15 14 13 11 12 10 8 8 8 8 9 11 12 15 16 17 18 19 21 22 23 22 24
23 28 26 34 34 38 37 36 35 38 37 43 44 36 25 18 16 16 17 16 16 16 14 13 11 10 10 9 9 9 9 7 9 12 14 15 15 17 18 20 22 21 21 22
26 29 30 29 26 29 36 32 31 32 31 31 28 36 25 28 22 23 21 19 21 20 17 21 20 16 12 9 8 8 9 9 9 11 12 12 14 15 17 19 20 19 20 21
31 32 36 36 27 28 34 30 30 27 27 26 34 32 32 30 29 24 21 21 23 19 21 20 20 16 13 11 7 8 8 7 9 10 10 12 13 14 16 17 18 18 19 20
33 30 29 34 30 37 31 30 32 34 38 36 35 30 31 31 27 27 24 25 26 22 22 19 18 15 11 7 6 3 5 7 8 8 9 10 11 12 14 15 15 16 18 19
33 30 34 34 37 38 41 30 23 28 33 32 29 26 28 30 27 27 27 28 22 19 16 15 12 11 9 7 4 5 7 7 7 8 8 8 9 10 11 12 13 15 16 18
26 29 32 33 35 38 33 22 20 23 35 25 25 27 25 25 30 29 28 25 19 15 10 8 8 8 7 6 4 6 7 7 6 5 6 7 8 9 9 10 11 13 15 17
22 24 26 30 35 39 36 30 20 33 33 26 25 24 26 28 25 22 21 19 15 9 6 6 6 7 7 5 4 5 6 5 4 4 5 7 7 7 8 8 9 11 14 15
15 16 21 24 29 36 21 25 26 23 26 26 22 22 22 22 22 20 18 15 12 8 6 6 5 6 6 5 4 4 4 2 2 3 4 6 6 7 7 8 9 9 12 14
16 14 18 15 20 21 25 27 28 29 30 26 23 21 19 19 19 16 15 13 9 6 5 5 5 4 4 5 4 3 2 1 2 3 3 4 5 6 6 7 9 9 11 12
11 15 15 18 20 26 32 33 31 30 29 27 22 18 19 19 15 13 10 8 7 6 4 4 4 5 5 5 5 3 2 2 2 2 3 3 4 4 5 7 8 8 9 11
13 14 18 17 24 28 26 22 24 24 23 20 18 18 18 16 16 13 12 11 8 7 7 6 5 6 6 6 4 3 2 2 1 1 1 2 3 3 5 6 7 8 10 10
15 19 20 23 23 27 26 21 18 18 18 17 18 18 17 16 13 12 11 10 8 8 7 7 8 9 7 6 4 4 3 2 2 2 1 1 1 3 4 6 8 9 10 10
Wind_Direction
293 281 275 272 274 283 289 285 286 289 291 298 272 270 276 261 264 249 258 269 281 299 320 333 342 348 348 348 345 345 341 342 341 340 341 347 350 352 351 351 350 349 346 342
286 276 278 282 282 280 280 282 284 289 288 293 284 265 257 258 257 249 255 264 270 292 310 326 338 341 343 344 345 346 346 345 346 347 347 349 349 352 353 352 351 350 347 345
274 287 288 279 279 278 277 277 283 285 289 289 289 274 270 274 271 274 264 264 264 266 281 305 323 331 342 344 346 350 352 353 353 352 349 347 348 347 343 344 344 349 350 347
280 278 278 282 278 275 276 276 280 283 282 277 279 278 276 266 272 273 263 260 258 263 270 292 315 331 343 347 351 353 352 351 351 352 352 351 348 344 344 345 346 345 349 346
278 284 280 270 267 272 280 279 280 281 279 281 276 283 283 267 268 273 267 258 249 253 254 278 302 327 344 347 350 351 352 351 352 353 354 351 350 349 347 347 346 346 347 346
274 280 280 281 282 263 288 276 281 284 281 274 276 276 279 266 266 277 268 258 249 249 260 274 301 326 335 338 343 348 349 349 351 353 353 353 352 350 348 347 347 349 349 348
275 271 271 273 276 274 263 270 275 276 271 274 279 278 264 289 279 274 256 248 243 242 246 257 271 307 328 332 339 344 344 344 349 352 353 354 353 352 350 350 351 350 350 350
273 274 268 266 259 268 265 257 264 271 274 278 277 277 280 290 284 276 248 234 241 237 243 249 268 293 320 327 332 338 339 342 347 351 353 353 354 354 353 354 354 354 353 353
275 272 279 271 261 255 265 256 261 271 283 279 279 282 292 297 291 266 248 244 235 236 235 246 270 292 313 318 325 332 335 337 341 347 350 352 353 353 355 357 358 357 355 354
272 273 275 275 267 263 258 268 265 264 267 271 278 280 282 289 289 277 255 243 242 241 245 256 272 287 310 318 325 327 329 333 339 347 350 350 351 355 357 359 0 358 352 357
260 265 269 274 263 263 262 259 265 269 265 268 276 280 282 276 272 265 261 254 242 239 246 261 272 282 299 315 318 323 328 332 338 346 348 349 353 357 359 359 358 358 356 356
261 267 264 262 271 275 271 262 258 263 266 267 272 276 299 287 269 265 262 255 243 246 254 267 274 280 288 302 312 320 323 330 338 344 344 349 356 358 359 359 360 359 357 357
282 266 264 268 270 266 265 267 260 261 270 263 268 275 282 289 281 279 271 259 258 258 260 270 271 270 279 291 307 318 325 335 340 341 349 351 355 357 359 359 359 0 1 359
291 274 267 263 272 279 270 263 261 255 260 263 265 274 286 284 279 282 276 271 268 261 259 262 261 267 268 279 296 316 324 333 338 345 349 352 355 357 359 360 0 0 3 2
282 282 288 280 282 282 283 278 266 261 265 261 264 269 277 289 285 282 286 284 275 266 264 245 251 264 264 274 289 308 328 344 347 345 347 350 357 1 1 359 2 3 6 7
276 284 297 293 284 298 282 283 281 272 270 271 274 274 280 285 287 284 279 279 284 279 261 261 270 267 264 270 281 305 323 330 342 342 344 357 2 3 3 1 5 10 13 12
278 282 281 283 286 295 290 279 278 276 277 277 274 278 287 288 286 280 273 276 284 276 270 257 259 258 260 265 272 300 320 342 342 342 351 354 2 1 4 8 14 19 18 20
274 273 278 281 284 281 292 285 280 279 278 275 276 280 284 286 288 290 282 280 285 274 266 259 260 261 248 246 269 311 333 333 340 340 346 356 4 5 12 19 31 26 27 28
267 274 276 280 280 284 281 288 283 284 282 287 284 285 289 290 293 289 295 301 295 282 270 258 240 236 232 246 253 293 316 333 335 337 347 4 11 5 17 35 37 32 29 27
274 273 276 281 281 279 279 301 311 296 281 295 295 292 294 298 289 292 305 306 299 291 270 242 237 238 230 253 261 289 308 317 322 340 359 14 16 19 33 47 45 39 34 30
285 285 281 280 279 277 285 304 312 282 283 304 307 302 300 296 303 310 312 308 304 294 271 250 240 229 240 242 254 296 305 301 325 354 12 13 19 37 50 37 40 45 36 25
299 301 293 286 288 284 311 309 295 310 313 312 312 313 312 307 308 309 310 308 304 292 269 249 235 242 259 253 267 301 295 312 2 13 21 18 34 42 40 26 34 58 41 28
298 303 305 308 309 314 309 307 311 313 308 309 309 313 314 309 308 311 310 308 305 291 276 262 235 247 253 270 272 283 273 130 81 39 20 37 38 28 12 31 47 44 38 20
303 299 313 316 318 305 299 297 303 302 302 303 306 309 312 306 307 309 315 314 309 300 279 257 246 255 270 279 281 267 173 125 81 58 55 45 39 27 11 24 37 38 20 358
297 305 304 314 312 311 315 316 317 310 304 302 303 305 307 306 300 299 298 295 296 289 283 272 263 266 272 274 261 210 197 142 174 96 46 65 44 1 10 5 16 14 350 359
290 296 301 309 314 305 316 321 324 321 315 304 299 301 313 304 301 297 296 297 294 286 283 278 277 274 265 258 240 229 193 167 194 193 177 134 5 18 32 36 25 11 12 11